Flag for Germany Weather past 2 weeks in Bingen am Rhein, Rhineland-Palatinate, Germany

Now
63 °F

Passing clouds.


Feels Like: 63 °F
Forecast: 59 / 84 °F
Wind: No wind

Location: Wiesbaden Airport

Current Time: Aug 1, 2014 at 2:36:09 AM

Latest Report: Aug 1, 2014 at 1:58 AM


Visibility: N/A

Pressure: 29.93 "Hg

Humidity: 83%

Dew point: 57 °F

Location of Bingen am RheinLocation

Historic Weather in Bingen am Rhein — Graph

°F

Bingen am Rhein temperature yesterday

Maximum temperature yesterday: 79 °F (at 3:58 PM)
Minimum temperature yesterday: 63 °F (at 5:58 AM)
Average temperature yesterday: 70 °F

Past Weeks' High & Low Weather Summary

 TemperatureHumidityPressure
High92 °F (Jul 19, 4:58 PM)100% (Jul 21, 2:58 AM)30.19 "Hg (Jul 21, 2:58 AM)
Low59 °F (Jul 17, 4:58 AM)25% (Jul 18, 6:58 PM)29.72 "Hg (Jul 29, 5:57 PM)
Average73 °F68%29.92 "Hg
* Reported Jul 17 12:58 AM — Aug 1 12:58 AM, Bingen am Rhein, Weather by CustomWeather, © 2014

Note: Actual official high and low records may vary slightly from our data, if they occured in-between our weather recording intervals... More about our weather records

Advertising

Bingen am Rhein weather history for previous 24 hours

 ConditionsComfort  
Time TempWeatherWind HumidityBarometerVisibility
12:58 AM
Aug 1
63 °FClear.No wind80%29.93 "HgN/A
11:58 PM
Jul 31
65 °FClear.No wind75%29.94 "HgN/A
10:58 PM67 °FClear.2 mph71%29.94 "HgN/A
9:58 PM69 °FSunny.No wind70%29.94 "HgN/A
8:58 PM75 °FSunny.No wind50%29.93 "HgN/A
7:58 PM77 °FLight rain. Sunny.2 mph47%29.93 "HgN/A
6:58 PM78 °FSunny.No wind42%29.93 "HgN/A
5:58 PM79 °FSunny.1 mph42%29.94 "HgN/A
4:58 PM78 °FSunny.3 mph42%29.95 "HgN/A
3:58 PM79 °FSunny.2 mph43%29.96 "HgN/A
2:58 PM77 °FSunny.2 mph44%29.98 "HgN/A
1:58 PM75 °FPassing clouds.5 mph54%29.98 "HgN/A
12:58 PM74 °FSunny.2 mph56%29.99 "HgN/A
11:58 AM73 °FPassing clouds.5 mph61%30.01 "HgN/A
10:58 AM72 °FSunny.2 mph65%30.01 "HgN/A
9:58 AM70 °FSunny.6 mph73%30.01 "HgN/A
8:58 AM65 °FSunny.5 mph80%30.02 "HgN/A
7:58 AM64 °FPartly sunny.6 mph83%30.00 "HgN/A
6:58 AM63 °FSunny.5 mph83%30.00 "HgN/A
5:58 AM63 °FPassing clouds.3 mph88%29.98 "HgN/A
4:58 AM64 °FOvercast.3 mph83%29.98 "HgN/A
3:58 AM64 °FOvercast.7 mph83%29.97 "HgN/A
2:58 AM64 °FOvercast.2 mph83%29.98 "HgN/A
Weather by CustomWeather, © 2014

See weather overviewHow to use our weather pages